• In Netherlands
  • List of Countries
  • For 7 days
  • Water Temperature
  • Satellite Maps
  • Weather Map
  • Weather Widgets
  • user-avatar
    Login

    Hourly Weather Plovdiv

    Today, 11 December, Monday

    Time Temperature Precipitation Wind Pressure Humidity
    00:00 +3°C° 0 mm 1 mps 739 mmHg 49%
    01:00 +3°C° 0 mm 1 mps 739 mmHg 49%
    02:00 +4°C° 0 mm 1 mps 739 mmHg 50%
    03:00 +4°C° 0 mm 1 mps 739 mmHg 50%
    04:00 +4°C° 0 mm 1 mps 739 mmHg 50%
    05:00 +4°C° 0 mm 1 mps 739 mmHg 50%
    06:00 +3°C° 0 mm 2 mps 740 mmHg 50%
    07:00 +3°C° 0 mm 2 mps 740 mmHg 50%
    08:00 +3°C° 0 mm 2 mps 740 mmHg 50%
    09:00 +6°C° 0 mm 2 mps 740 mmHg 47%
    10:00 +8°C° 0 mm 2 mps 740 mmHg 44%
    11:00 +11°C° 0 mm 1 mps 741 mmHg 41%
    12:00 +10°C° 0 mm 2 mps 740 mmHg 42%
    13:00 +12°C° 0 mm 2 mps 740 mmHg 44%
    14:00 +13°C° 0 mm 2 mps 740 mmHg 45%
    15:00 +10°C° 0 mm 2 mps 740 mmHg 52%
    16:00 +8°C° 0 mm 2 mps 740 mmHg 58%
    17:00 +6°C° 0 mm 2 mps 740 mmHg 65%
    18:00 +6°C° 0 mm 2 mps 740 mmHg 64%
    19:00 +6°C° 0 mm 2 mps 740 mmHg 63%
    20:00 +6°C° 0 mm 2 mps 740 mmHg 62%
    21:00 +5°C° 0 mm 2 mps 741 mmHg 60%
    22:00 +5°C° 0 mm 2 mps 741 mmHg 58%
    23:00 +5°C° 0 mm 2 mps 741 mmHg 57%

    Tomorrow, 12 December, Tuesday

    Time Temperature Precipitation Wind Pressure Humidity
    00:00 +5°C° 0 mm 2 mps 741 mmHg 56%
    01:00 +5°C° 0 mm 2 mps 741 mmHg 55%
    02:00 +5°C° 0 mm 2 mps 741 mmHg 55%
    03:00 +6°C° 0 mm 2 mps 741 mmHg 55%
    04:00 +6°C° 0 mm 2 mps 741 mmHg 54%
    05:00 +6°C° 0 mm 2 mps 741 mmHg 54%
    06:00 +6°C° 0 mm 2 mps 741 mmHg 54%
    07:00 +6°C° 0 mm 2 mps 741 mmHg 54%
    08:00 +6°C° 0 mm 2 mps 742 mmHg 54%
    09:00 +9°C° 0 mm 1 mps 742 mmHg 51%
    10:00 +12°C° 0 mm 1 mps 742 mmHg 48%
    11:00 +14°C° 0 mm 1 mps 742 mmHg 45%
    12:00 +15°C° 0 mm 1 mps 741 mmHg 45%
    13:00 +15°C° 0 mm 1 mps 741 mmHg 45%
    14:00 +16°C° 0 mm 1 mps 741 mmHg 46%
    15:00 +14°C° 0 mm 1 mps 741 mmHg 52%
    16:00 +12°C° 0 mm 1 mps 741 mmHg 59%
    17:00 +11°C° 0 mm 1 mps 741 mmHg 65%
    18:00 +10°C° 0 mm 1 mps 741 mmHg 66%
    19:00 +10°C° 0 mm 1 mps 741 mmHg 67%
    20:00 +10°C° 0 mm 1 mps 742 mmHg 68%
    21:00 +10°C° 0 mm 1 mps 742 mmHg 69%
    22:00 +10°C° 0 mm 1 mps 742 mmHg 69%
    23:00 +9°C° 0 mm 2 mps 742 mmHg 70%

    Day after tomorrow, 13 December, Wednesday

    Time Temperature Precipitation Wind Pressure Humidity
    00:00 +9°C° 0 mm 2 mps 742 mmHg 71%
    01:00 +9°C° 0 mm 2 mps 742 mmHg 72%
    02:00 +8°C° 0 mm 2 mps 742 mmHg 73%
    03:00 +8°C° 0 mm 2 mps 741 mmHg 74%
    04:00 +9°C° 0 mm 1 mps 741 mmHg 74%
    05:00 +9°C° 0 mm 1 mps 741 mmHg 75%
    06:00 +9°C° 0 mm 1 mps 741 mmHg 75%
    07:00 +9°C° 0 mm 1 mps 741 mmHg 74%
    08:00 +9°C° 0 mm 1 mps 741 mmHg 74%
    09:00 +11°C° 0 mm 1 mps 741 mmHg 68%
    10:00 +13°C° 0 mm 1 mps 742 mmHg 62%
    11:00 +15°C° 0 mm 1 mps 742 mmHg 56%
    12:00 +16°C° 0 mm 1 mps 741 mmHg 54%
    13:00 +16°C° 0 mm 1 mps 741 mmHg 53%
    14:00 +18°C° 0 mm 1 mps 740 mmHg 52%
    15:00 +15°C° 0 mm 1 mps 740 mmHg 58%
    16:00 +14°C° 0 mm 1 mps 740 mmHg 65%
    17:00 +12°C° 0 mm 1 mps 739 mmHg 71%
    18:00 +12°C° 0 mm 1 mps 739 mmHg 71%
    19:00 +12°C° 0 mm 1 mps 739 mmHg 70%
    20:00 +11°C° 0 mm 1 mps 739 mmHg 69%
    21:00 +11°C° 0 mm 1 mps 739 mmHg 68%
    22:00 +11°C° 0 mm 1 mps 739 mmHg 67%
    23:00 +11°C° 0 mm 1 mps 738 mmHg 66%

    14 December, Thursday

    Time Temperature Precipitation Wind Pressure Humidity
    00:00 +11°C° 0 mm 1 mps 738 mmHg 66%
    01:00 +11°C° 0 mm 1 mps 738 mmHg 65%
    02:00 +11°C° 0 mm 1 mps 738 mmHg 65%
    03:00 +11°C° 0 mm 1 mps 737 mmHg 66%
    04:00 +11°C° 0 mm 1 mps 737 mmHg 66%
    05:00 +10°C° 0 mm 2 mps 737 mmHg 67%
    06:00 +9°C° 0 mm 2 mps 737 mmHg 70%
    07:00 +9°C° 0 mm 2 mps 738 mmHg 73%
    08:00 +8°C° 0 mm 2 mps 738 mmHg 75%
    09:00 +11°C° 0 mm 1 mps 738 mmHg 71%
    10:00 +13°C° 0 mm 1 mps 738 mmHg 66%
    11:00 +14°C° 0 mm 1 mps 738 mmHg 62%
    12:00 +15°C° 0 mm 1 mps 738 mmHg 60%
    13:00 +15°C° 0 mm 1 mps 738 mmHg 58%
    14:00 +15°C° 0 mm 1 mps 737 mmHg 56%
    15:00 +14°C° 0 mm 1 mps 737 mmHg 62%
    16:00 +12°C° 0 mm 1 mps 737 mmHg 67%
    17:00 +10°C° 0 mm 0 mps 737 mmHg 73%
    18:00 +11°C° 0 mm 1 mps 738 mmHg 75%
    19:00 +10°C° 0 mm 1 mps 738 mmHg 76%
    20:00 +10°C° 0 mm 1 mps 738 mmHg 78%
    21:00 +9°C° 0 mm 1 mps 738 mmHg 79%
    22:00 +9°C° 0 mm 1 mps 738 mmHg 79%
    23:00 +9°C° 0 mm 1 mps 738 mmHg 80%

    15 December, Friday

    Time Temperature Precipitation Wind Pressure Humidity
    00:00 +8°C° 0 mm 1 mps 738 mmHg 79%
    01:00 +8°C° 0 mm 1 mps 738 mmHg 79%
    02:00 +8°C° 0 mm 1 mps 738 mmHg 78%
    03:00 +8°C° 0 mm 1 mps 737 mmHg 77%
    04:00 +8°C° 0 mm 1 mps 737 mmHg 76%
    05:00 +8°C° 0 mm 1 mps 737 mmHg 74%
    06:00 +8°C° 0 mm 1 mps 737 mmHg 73%
    07:00 +8°C° 0 mm 1 mps 737 mmHg 71%
    08:00 +8°C° 0 mm 1 mps 738 mmHg 70%
    09:00 +9°C° 0 mm 1 mps 738 mmHg 64%
    10:00 +11°C° 0 mm 1 mps 738 mmHg 58%
    11:00 +13°C° 0 mm 1 mps 738 mmHg 53%
    12:00 +14°C° 0 mm 1 mps 737 mmHg 51%
    13:00 +14°C° 0 mm 1 mps 737 mmHg 50%
    14:00 +15°C° 0 mm 1 mps 736 mmHg 49%
    15:00 +13°C° 0 mm 1 mps 736 mmHg 56%
    16:00 +12°C° 0 mm 1 mps 736 mmHg 63%
    17:00 +10°C° 0 mm 1 mps 736 mmHg 70%
    18:00 +9°C° 0 mm 2 mps 736 mmHg 69%
    19:00 +9°C° 0 mm 2 mps 735 mmHg 68%
    20:00 +8°C° 0 mm 2 mps 735 mmHg 68%
    21:00 +8°C° 0 mm 2 mps 735 mmHg 68%
    22:00 +8°C° 0 mm 2 mps 735 mmHg 67%
    23:00 +8°C° 0 mm 2 mps 735 mmHg 67%

    16 December, Saturday

    Time Temperature Precipitation Wind Pressure Humidity
    00:00 +8°C° 0 mm 2 mps 735 mmHg 68%
    01:00 +8°C° 0 mm 2 mps 735 mmHg 68%
    02:00 +8°C° 0 mm 2 mps 735 mmHg 69%
    03:00 +8°C° 0 mm 2 mps 735 mmHg 69%
    04:00 +8°C° 0 mm 2 mps 734 mmHg 70%
    05:00 +8°C° 0 mm 2 mps 734 mmHg 70%
    06:00 +8°C° 0 mm 2 mps 734 mmHg 71%
    07:00 +8°C° 0 mm 2 mps 734 mmHg 72%
    08:00 +8°C° 0 mm 2 mps 734 mmHg 73%
    09:00 +10°C° 0 mm 2 mps 734 mmHg 69%
    10:00 +12°C° 0 mm 2 mps 734 mmHg 66%
    11:00 +14°C° 0 mm 2 mps 734 mmHg 62%
    12:00 +14°C° 0 mm 2 mps 734 mmHg 62%
    13:00 +14°C° 0 mm 3 mps 733 mmHg 61%
    14:00 +14°C° 0 mm 3 mps 733 mmHg 61%
    15:00 +14°C° 0 mm 2 mps 733 mmHg 66%
    16:00 +13°C° 0 mm 2 mps 733 mmHg 70%
    17:00 +12°C° 0 mm 2 mps 732 mmHg 75%
    18:00 +12°C° 0 mm 2 mps 732 mmHg 77%
    19:00 +10°C° 0 mm 2 mps 732 mmHg 79%
    20:00 +10°C° 0 mm 3 mps 732 mmHg 81%
    21:00 +10°C° 0.1 mm 3 mps 732 mmHg 83%
    22:00 +10°C° 0.1 mm 3 mps 731 mmHg 84%
    23:00 +11°C° 0.1 mm 3 mps 731 mmHg 85%
    Show more